Content
SEND FEEDBACK

Daily
Averages
Monthly
Summary
United States of America

CONROE, TEXAS


Home > North America > United States > Texas
Elevation: 245 feet     Latitude: 30 21N     Longitude: 095 25W

WEATHER
 
SELECT A DAY
Number of Records: 193,555;   Date Range: 12/10/96 - 8/12/14
 
SHARE

PRINT THIS DATA

[ ← Previous Day ]
WEATHER ALMANAC - FEBRUARY 13, 2013
[ Next Day → ]
[ °C ]   °F
Weather ElementAverageHighLow
Temperature47.7 °F57.9 °F (2:53 pm)34 °F (11:53 pm)
Dewpoint38.2 °F43 °F (1:53 am)32 °F (11:53 pm)
Humidity71.3 %100 % (10:53 pm)49 % (2:53 pm)
Barometer30.08 in30.13 in (8:53 am)30.04 in (1:53 am)
Wind Speed8 mph15 mph (10:53 am)
Wind Gust23 mph (4:53 am)
Weather ElementAverage
Visibility10 mi
Wind DirectionSW (222.1 °)

Weather ElementTotal
Precipitation---
Heating Degree Days19.1 (Base 65)
Averaged from 24 records on February 13, 2013
WEATHER CONDITIONS BREAKOUT
WIND DIRECTION BREAKOUT
WEATHER BY HOUR - FEBRUARY 13, 2013
[ °C ]   °F
Local TimeTemperatureDewpointHumidityBarometerVisibilityWind DirectionWind SpeedGust SpeedPrecipitationEventsConditions
1:53 AM50.0 °F43.0 °F77 %30.04 in10.0 miNW (320°)13.8 mph19.6 mphOvercast
2:53 AM48.9 °F39.0 °F69 %30.05 in10.0 miNW (310°)13.8 mph21.9 mphScattered Clouds
3:53 AM48.0 °F39.9 °F74 %30.04 in10.0 miNW (320°)9.2 mphOvercast
4:46 AM46.4 °F39.2 °F76 %30.04 in10.0 miNNW (330°)11.5 mph19.6 mphOvercast
4:53 AM46.9 °F37.9 °F71 %30.05 in10.0 miNNW (340°)11.5 mph23.0 mphOvercast
5:53 AM46.0 °F36.0 °F68 %30.07 in10.0 miNNW (340°)11.5 mphOvercast
6:53 AM44.1 °F36.0 °F73 %30.12 in10.0 miNW (310°)8.1 mphScattered Clouds
7:53 AM44.1 °F36.0 °F73 %30.12 in10.0 miNNW (330°)9.2 mphScattered Clouds
8:53 AM46.0 °F37.0 °F71 %30.13 in10.0 miNNW (340°)13.8 mph20.7 mphClear
9:53 AM48.9 °F37.9 °F66 %30.13 in10.0 miNNW (340°)13.8 mph20.7 mphClear
10:53 AM51.1 °F37.9 °F61 %30.12 in10.0 miNorth (360°)15.0 mph20.7 mphClear
11:53 AM53.1 °F39.0 °F59 %30.12 in10.0 miNorth (10°)15.0 mph20.7 mphClear
12:53 PM55.0 °F39.0 °F55 %30.10 in10.0 miNorth (360°)8.1 mphClear
1:53 PM57.0 °F39.0 °F51 %30.07 in10.0 miNNW (340°)10.4 mphClear
2:53 PM57.9 °F39.0 °F49 %30.06 in10.0 miNNE (20°)8.1 mphClear
3:53 PM57.0 °F39.0 °F51 %30.05 in10.0 miWNW (300°)5.8 mphClear
4:53 PM57.0 °F39.0 °F51 %30.05 in10.0 miNNW (330°)8.1 mphClear
5:53 PM53.1 °F39.9 °F61 %30.06 in10.0 miNNW (330°)5.8 mphClear
6:53 PM45.0 °F41.0 °F86 %30.07 in10.0 miCalmClear
7:53 PM42.1 °F39.9 °F92 %30.09 in10.0 miCalmClear
8:53 PM39.9 °F37.9 °F93 %30.10 in10.0 miCalmClear
9:53 PM37.9 °F36.0 °F93 %30.11 in10.0 miCalmClear
10:53 PM35.1 °F35.1 °F100 %30.11 in10.0 miCalmClear
11:53 PM34.0 °F32.0 °F92 %30.11 in10.0 miCalmClear
Hourly data recorded from KCXO, located miles away from Conroe, Texas







STORIES FROM OUR PARTNERS